Location: Curupao
(10.4996°N, 66.6442°W)
Time: 00:45:40
(UTC+00:00)

Sakura Rocket - Pass Details

Date: 23 May 2024
Orbit: 475 x 1715 km, 28.7° (Epoch: 12 June)

Event Time Altitude Azimuth Distance (km) Brightness Sun altitude
Exits shadow 08:43:06 25° 207° (SSW) 1,759 4.9 -19.0°
Maximum altitude 08:46:09 42° 153° (SSE) 1,137 4.3 -18.3°
Drops below altitude 10° 08:50:44 10° 82° (E) 2,075 6.9 -17.3°
Sets 08:52:53 0° 75° (ENE) 2,853 8.1 -16.8°
